�������l�o���
Date,Time,MP-1(��Sv/h),MP-2(��Sv/h),MP-3(��Sv/h),MP-4(��Sv/h),MP-5(��Sv/h),MP-6(��Sv/h),MP-7(��Sv/h),MP-8(��Sv/h),����,����(m/s),���J
2023/01/20,00:00,0.558,0.807,0.510,1.033,0.715,0.320,0.578,0.552,�쐼,3.4,��
2023/01/20,00:10,0.557,0.806,0.507,1.036,0.713,0.320,0.580,0.552,�쐼,3.1,��
2023/01/20,00:20,0.560,0.808,0.510,1.035,0.714,0.318,0.580,0.551,��쐼,3.1,��
2023/01/20,00:30,0.557,0.807,0.510,1.036,0.715,0.319,0.580,0.551,�쐼,2.7,��
2023/01/20,00:40,0.559,0.807,0.507,1.033,0.714,0.320,0.581,0.552,�쐼,3.2,��
2023/01/20,00:50,0.558,0.807,0.510,1.035,0.714,0.320,0.579,0.551,���쐼,3.0,��
2023/01/20,01:00,0.558,0.807,0.508,1.036,0.715,0.319,0.580,0.552,��,1.1,��
2023/01/20,01:10,0.559,0.811,0.510,1.037,0.714,0.321,0.580,0.552,���쐼,2.0,��
2023/01/20,01:20,0.559,0.807,0.508,1.037,0.714,0.321,0.579,0.551,���쐼,3.8,��
2023/01/20,01:30,0.559,0.809,0.508,1.034,0.716,0.321,0.580,0.551,���쐼,3.6,��
2023/01/20,01:40,0.560,0.805,0.507,1.034,0.715,0.321,0.580,0.550,���쐼,5.6,��
2023/01/20,01:50,0.559,0.809,0.511,1.036,0.717,0.319,0.579,0.552,�쐼,6.0,��
2023/01/20,02:00,0.560,0.808,0.510,1.039,0.715,0.320,0.579,0.552,�쐼,8.0,��
2023/01/20,02:10,0.561,0.809,0.509,1.036,0.716,0.320,0.579,0.551,�쐼,8.3,��
2023/01/20,02:20,0.560,0.807,0.508,1.037,0.715,0.320,0.579,0.552,�쐼,9.1,��
2023/01/20,02:30,0.560,0.807,0.508,1.036,0.716,0.320,0.582,0.552,�쐼,8.8,��
2023/01/20,02:40,0.560,0.806,0.508,1.036,0.715,0.320,0.581,0.552,�쐼,8.3,��
2023/01/20,02:50,0.560,0.809,0.509,1.034,0.715,0.320,0.581,0.552,�쐼,8.0,��
2023/01/20,03:00,0.559,0.807,0.509,1.034,0.715,0.320,0.583,0.551,��쐼,7.7,��
2023/01/20,03:10,0.560,0.807,0.509,1.036,0.717,0.320,0.580,0.552,��쐼,6.4,��
2023/01/20,03:20,0.561,0.808,0.509,1.038,0.716,0.320,0.581,0.553,�쐼,6.3,��
2023/01/20,03:30,0.560,0.807,0.510,1.035,0.716,0.320,0.581,0.552,��쐼,5.5,��
2023/01/20,03:40,0.560,0.809,0.509,1.037,0.716,0.321,0.581,0.552,�쐼,6.3,��
2023/01/20,03:50,0.562,0.806,0.510,1.036,0.717,0.321,0.582,0.553,��쐼,6.0,��
2023/01/20,04:00,0.560,0.806,0.510,1.037,0.715,0.322,0.583,0.554,��쐼,5.2,��
2023/01/20,04:10,0.562,0.809,0.510,1.035,0.716,0.321,0.580,0.553,��쐼,5.6,��
2023/01/20,04:20,0.561,0.808,0.510,1.035,0.716,0.320,0.582,0.552,��쐼,4.6,��
2023/01/20,04:30,0.561,0.809,0.509,1.037,0.716,0.321,0.581,0.554,��쐼,4.4,��
2023/01/20,04:40,0.560,0.810,0.510,1.035,0.718,0.320,0.582,0.553,��쐼,4.2,��
2023/01/20,04:50,0.561,0.810,0.508,1.037,0.718,0.321,0.580,0.553,��쐼,4.1,��
2023/01/20,05:00,0.561,0.808,0.510,1.037,0.717,0.321,0.581,0.552,��쐼,5.2,��
2023/01/20,05:10,0.561,0.810,0.509,1.038,0.717,0.321,0.580,0.552,��,5.0,��
2023/01/20,05:20,0.562,0.810,0.511,1.039,0.716,0.321,0.581,0.553,��,4.9,��
2023/01/20,05:30,0.561,0.810,0.509,1.037,0.717,0.320,0.581,0.552,��,5.0,��
2023/01/20,05:40,0.561,0.808,0.511,1.038,0.717,0.320,0.581,0.552,��,5.3,��
2023/01/20,05:50,0.561,0.810,0.510,1.035,0.717,0.321,0.580,0.554,��,5.0,��
2023/01/20,06:00,0.561,0.809,0.510,1.039,0.719,0.321,0.579,0.553,��,4.1,��
2023/01/20,06:10,0.560,0.810,0.511,1.038,0.718,0.320,0.581,0.553,��쐼,3.8,��
2023/01/20,06:20,0.562,0.808,0.512,1.037,0.716,0.320,0.580,0.553,��쐼,3.8,��
2023/01/20,06:30,0.562,0.809,0.510,1.035,0.717,0.322,0.582,0.553,��쐼,3.3,��
2023/01/20,06:40,0.561,0.808,0.510,1.039,0.718,0.321,0.580,0.552,��,3.5,��
2023/01/20,06:50,0.562,0.810,0.510,1.038,0.720,0.321,0.582,0.551,��,3.0,��
2023/01/20,07:00,0.559,0.810,0.510,1.037,0.717,0.321,0.581,0.553,��,3.5,��
2023/01/20,07:10,0.562,0.809,0.510,1.037,0.717,0.321,0.580,0.552,��쓌,3.3,��
2023/01/20,07:20,0.561,0.808,0.511,1.037,0.717,0.321,0.582,0.553,��,3.6,��
2023/01/20,07:30,0.561,0.809,0.510,1.038,0.719,0.321,0.582,0.552,��쓌,4.2,��
2023/01/20,07:40,0.562,0.809,0.510,1.038,0.718,0.322,0.581,0.554,��,3.5,��
2023/01/20,07:50,0.563,0.810,0.512,1.037,0.718,0.320,0.581,0.553,��,3.6,��
2023/01/20,08:00,0.562,0.809,0.511,1.038,0.718,0.321,0.581,0.552,��,2.8,��
2023/01/20,08:10,0.563,0.808,0.510,1.038,0.717,0.322,0.580,0.554,��,2.7,��
2023/01/20,08:20,0.560,0.808,0.511,1.037,0.718,0.321,0.582,0.553,��쐼,2.1,��
2023/01/20,08:30,0.555,0.807,0.511,1.036,0.717,0.321,0.582,0.551,�쐼,2.3,��
2023/01/20,08:40,0.554,0.808,0.512,1.036,0.718,0.321,0.582,0.553,��쐼,2.6,��
2023/01/20,08:50,0.553,0.809,0.511,1.039,0.718,0.322,0.580,0.553,�쐼,2.6,��
2023/01/20,09:00,0.555,0.808,0.511,1.038,0.719,0.321,0.581,0.552,�쐼,2.8,��
2023/01/20,09:10,0.562,0.807,0.509,1.039,0.717,0.320,0.581,0.552,���쐼,3.3,��
2023/01/20,09:20,0.555,0.809,0.510,1.039,0.718,0.321,0.582,0.553,�쐼,3.1,��
2023/01/20,09:30,0.554,0.812,0.510,1.039,0.717,0.322,0.582,0.552,���쐼,3.0,��
2023/01/20,09:40,0.556,0.809,0.510,1.038,0.716,0.321,0.581,0.553,�쐼,2.8,��
2023/01/20,09:50,0.555,0.809,0.512,1.038,0.717,0.321,0.583,0.552,���쐼,2.1,��
2023/01/20,10:00,0.553,0.808,0.510,1.039,0.718,0.321,0.582,0.553,���쐼,2.0,��
2023/01/20,10:10,0.554,0.808,0.512,1.038,0.718,0.322,0.582,0.553,���쐼,2.6,��
2023/01/20,10:20,0.555,0.810,0.512,1.038,0.716,0.321,0.580,0.553,���쐼,2.0,��
2023/01/20,10:30,0.554,0.812,0.512,1.041,0.718,0.322,0.580,0.555,���쐼,2.6,��
2023/01/20,10:40,0.557,0.810,0.512,1.039,0.719,0.323,0.581,0.555,��,2.1,��
2023/01/20,10:50,0.554,0.809,0.512,1.039,0.720,0.322,0.581,0.554,���k��,1.8,��
2023/01/20,11:00,0.557,0.811,0.512,1.039,0.717,0.323,0.581,0.554,�k�k��,0.7,��
2023/01/20,11:10,0.563,0.808,0.511,1.038,0.719,0.322,0.579,0.553,�k��,2.2,��
2023/01/20,11:20,0.565,0.799,0.513,1.039,0.718,0.323,0.580,0.555,��,1.9,��
2023/01/20,11:30,0.565,0.800,0.512,1.039,0.721,0.322,0.580,0.554,���k��,2.9,��
2023/01/20,11:40,0.560,0.807,0.511,1.040,0.720,0.322,0.581,0.553,�k��,3.0,��
2023/01/20,11:50,0.562,0.807,0.510,1.039,0.718,0.323,0.581,0.553,�k��,3.1,��
2023/01/20,12:00,0.562,0.807,0.508,1.038,0.718,0.322,0.582,0.554,�k��,2.6,��
2023/01/20,12:10,0.561,0.800,0.511,1.039,0.718,0.322,0.580,0.554,�k��,2.6,��
2023/01/20,12:20,0.564,0.808,0.511,1.040,0.718,0.321,0.580,0.555,�k��,2.5,��
2023/01/20,12:30,0.563,0.809,0.510,1.039,0.717,0.322,0.581,0.555,���k��,2.5,��
2023/01/20,12:40,0.562,0.809,0.510,1.039,0.717,0.322,0.582,0.555,���k��,3.1,��
2023/01/20,12:50,0.563,0.805,0.512,1.039,0.717,0.322,0.583,0.553,��,3.4,��
2023/01/20,13:00,0.562,0.806,0.511,1.041,0.716,0.323,0.582,0.552,���쓌,1.8,��
2023/01/20,13:10,0.564,0.807,0.509,1.040,0.717,0.324,0.582,0.552,��,2.6,��
2023/01/20,13:20,0.562,0.807,0.510,1.041,0.718,0.323,0.583,0.550,��,4.1,��
2023/01/20,13:30,0.562,0.810,0.511,1.041,0.719,0.322,0.584,0.552,��,3.2,��
2023/01/20,13:40,0.563,0.807,0.511,1.039,0.718,0.324,0.583,0.552,��,3.4,��
2023/01/20,13:50,0.564,0.810,0.511,1.039,0.717,0.324,0.584,0.553,��,2.9,��
2023/01/20,14:00,0.561,0.808,0.511,1.040,0.719,0.324,0.582,0.552,���쓌,3.0,��
2023/01/20,14:10,0.564,0.807,0.511,1.042,0.718,0.323,0.583,0.552,���쓌,2.6,��
2023/01/20,14:20,0.564,0.808,0.511,1.040,0.718,0.323,0.585,0.551,���쓌,1.7,��
2023/01/20,14:30,0.564,0.809,0.512,1.040,0.721,0.323,0.582,0.552,���쓌,1.2,��
2023/01/20,14:40,0.563,0.808,0.511,1.041,0.721,0.324,0.584,0.551,���k��,1.4,��
2023/01/20,14:50,0.565,0.807,0.511,1.039,0.719,0.325,0.586,0.551,���k��,1.9,��
2023/01/20,15:00,0.565,0.810,0.510,1.040,0.720,0.324,0.586,0.551,���쐼,6.4,��
2023/01/20,15:10,0.565,0.811,0.513,1.040,0.721,0.323,0.583,0.553,��,6.0,��
2023/01/20,15:20,0.565,0.812,0.505,1.043,0.720,0.324,0.585,0.553,���k��,6.4,��
2023/01/20,15:30,0.562,0.812,0.510,1.040,0.720,0.323,0.584,0.554,���k��,5.5,��
2023/01/20,15:40,0.564,0.814,0.513,1.041,0.719,0.324,0.586,0.555,���k��,3.5,��
2023/01/20,15:50,0.564,0.814,0.512,1.040,0.720,0.323,0.584,0.556,��,3.0,��
2023/01/20,16:00,0.563,0.813,0.513,1.041,0.719,0.323,0.585,0.554,��,1.8,��
2023/01/20,16:10,0.565,0.812,0.512,1.042,0.719,0.324,0.583,0.555,��,1.6,��
2023/01/20,16:20,0.564,0.812,0.514,1.041,0.718,0.324,0.585,0.554,�쐼,1.5,��
2023/01/20,16:30,0.565,0.814,0.513,1.040,0.718,0.323,0.584,0.555,�쐼,2.4,��
2023/01/20,16:40,0.563,0.813,0.513,1.041,0.719,0.323,0.586,0.555,��,5.3,��
2023/01/20,16:50,0.565,0.813,0.513,1.041,0.719,0.324,0.584,0.555,��,5.2,��
2023/01/20,17:00,0.563,0.815,0.514,1.041,0.718,0.323,0.584,0.556,��쐼,2.6,��
2023/01/20,17:10,0.567,0.813,0.513,1.040,0.722,0.324,0.585,0.555,�쐼,2.9,��
2023/01/20,17:20,0.565,0.811,0.513,1.041,0.718,0.324,0.584,0.553,���쐼,3.8,��
2023/01/20,17:30,0.565,0.814,0.511,1.041,0.721,0.324,0.584,0.556,���쐼,4.1,��
2023/01/20,17:40,0.565,0.815,0.514,1.043,0.721,0.322,0.583,0.554,��,2.2,��
2023/01/20,17:50,0.564,0.813,0.512,1.042,0.722,0.323,0.583,0.555,���k��,2.7,��
2023/01/20,18:00,0.565,0.812,0.513,1.042,0.720,0.324,0.585,0.555,��,5.0,��
2023/01/20,18:10,0.566,0.814,0.513,1.040,0.721,0.324,0.584,0.555,��,6.1,��
2023/01/20,18:20,0.565,0.813,0.513,1.044,0.721,0.325,0.583,0.555,��,9.4,��
2023/01/20,18:30,0.566,0.814,0.513,1.041,0.721,0.323,0.583,0.554,��,10.8,��
2023/01/20,18:40,0.565,0.813,0.513,1.044,0.723,0.323,0.583,0.554,���k��,10.4,��
2023/01/20,18:50,0.563,0.813,0.513,1.043,0.720,0.323,0.584,0.555,��,10.1,��
2023/01/20,19:00,0.565,0.814,0.514,1.042,0.723,0.323,0.585,0.555,��,11.8,��
2023/01/20,19:10,0.564,0.814,0.513,1.041,0.720,0.323,0.584,0.553,��,10.1,��
2023/01/20,19:20,0.564,0.812,0.514,1.043,0.721,0.323,0.585,0.555,��,11.9,��
2023/01/20,19:30,0.566,0.813,0.511,1.042,0.720,0.323,0.584,0.553,��,10.2,��
2023/01/20,19:40,0.564,0.811,0.514,1.042,0.722,0.322,0.584,0.553,��,11.4,��
2023/01/20,19:50,0.565,0.812,0.513,1.042,0.722,0.323,0.585,0.555,���쐼,9.4,��
2023/01/20,20:00,0.564,0.814,0.512,1.042,0.723,0.323,0.585,0.556,��,10.5,��
2023/01/20,20:10,0.566,0.813,0.513,1.041,0.722,0.324,0.585,0.556,���쐼,9.6,��
2023/01/20,20:20,0.566,0.812,0.514,1.041,0.721,0.323,0.584,0.556,��,9.9,��
2023/01/20,20:30,0.565,0.814,0.511,1.043,0.721,0.324,0.584,0.555,���쐼,10.7,�L
2023/01/20,20:40,0.565,0.812,0.513,1.042,0.723,0.323,0.585,0.554,��,9.1,��
2023/01/20,20:50,0.565,0.813,0.513,1.043,0.721,0.322,0.583,0.555,��,9.9,��
2023/01/20,21:00,0.564,0.813,0.513,1.044,0.722,0.323,0.585,0.554,��,11.3,��
2023/01/20,21:10,0.565,0.814,0.513,1.042,0.721,0.322,0.586,0.556,��,11.6,��
2023/01/20,21:20,0.563,0.814,0.513,1.042,0.721,0.323,0.584,0.556,��,11.5,��
2023/01/20,21:30,0.564,0.813,0.513,1.042,0.722,0.323,0.584,0.555,��,11.3,��
2023/01/20,21:40,0.564,0.812,0.511,1.042,0.722,0.324,0.584,0.554,���쐼,8.2,��
2023/01/20,21:50,0.563,0.813,0.511,1.042,0.723,0.324,0.582,0.556,��,9.9,��
2023/01/20,22:00,0.563,0.814,0.513,1.043,0.723,0.322,0.583,0.555,��,9.3,��
2023/01/20,22:10,0.562,0.812,0.512,1.042,0.721,0.322,0.582,0.554,��,10.5,��
2023/01/20,22:20,0.563,0.812,0.512,1.042,0.720,0.321,0.585,0.555,��,8.5,��
2023/01/20,22:30,0.563,0.813,0.513,1.044,0.721,0.323,0.586,0.554,��,10.4,��
2023/01/20,22:40,0.564,0.813,0.512,1.044,0.721,0.322,0.584,0.555,��,7.7,��
2023/01/20,22:50,0.566,0.814,0.512,1.043,0.722,0.322,0.584,0.557,��,7.4,��
2023/01/20,23:00,0.564,0.813,0.512,1.044,0.720,0.322,0.583,0.556,��,9.1,��
2023/01/20,23:10,0.565,0.815,0.514,1.046,0.722,0.324,0.583,0.558,���k��,7.4,�L
2023/01/20,23:20,0.563,0.813,0.514,1.042,0.722,0.321,0.585,0.556,��,7.4,��
2023/01/20,23:30,0.562,0.814,0.513,1.043,0.723,0.323,0.584,0.556,��,7.8,��
2023/01/20,23:40,0.564,0.815,0.513,1.044,0.723,0.323,0.584,0.557,���k��,7.8,��
2023/01/20,23:50,0.564,0.813,0.514,1.044,0.722,0.323,0.585,0.556,��,8.8,��
